SL-12 DEB, 41641

Orbit data source: Space-Track

SL-12 DEB, 41641 is space debris in HEO originally from a launch on Thu, 25 Dec 2008 UTC launched from the Tyuratam Missile And Space Complex (TTMTR). Debris objects in space refer to the collection of defunct objects orbiting the Earth. Examples of debris include non-operational satellites, rocket bodies, and fragments generated from explosions, collisions, or faulty payload assembly.

Loading next visibility...
SL-12 DEB details
Identifier
41641, 2008-067M
Orbit
HEO
Last TLE update19 hours ago
Origin
Flag of CISVVKO VKS (CIS)
ManufacturerRKKE
MissionSpacecraft
Bus & MotorUnknown
MassUnknown
Launch date (UTC)
2008-12-25 (16 years ago)
Launch vehicleUnknown
Launch site
Tyuratam Missile And Space Complex (TTMTR)
Object type
Payload
Rocket body
Debris
Shape & HBRUnknown
Radar Cross SectionMedium (>0.1 m² and <1 m²)

Expand to show TLE details & history

TLE from 19 hours ago
0 SL-12 DEB
1 41641U 08067M   24339.40382688  .00002068  00000-0  89419-2 0  9996
2 41641  65.0300 335.0333 5651087 311.0381  12.2567  4.29001082130903
Epoch: 2024-12-04T09:41Z
Definitive object data (Epoch: 2024-12-04T09:41:30.642Z)
Latitude-0.00006°
Longitude115.96092°
Altitude1,571.73 km
Speed8.682 km/s
True Right ascension22h 20m 09s
True Declination0° 00' 00"
Sunlit
Object was in daylight at TLE epoch
Visualization TLE readout
Latitude47.4213°
Longitude-94.7498°
Altitude18,532.562 km
Speed2.665 km/s
Apparent Right ascension09h 23m 59s
Apparent Declination40° 05' 45"
Sunlit
Object is in daylight
Visualization observer readout
Local Sidereal Time02:47:48
Azimuth52.908° ENE
Elevation18.725°
Doppler factor1
Orbital elements
Apogee altitude18,660.464 km
Perigee altitude579.252 km
Semi-major axis15,997.995 km
Eccentricity0.5651087
Inclination65.03°
RAAN335.0333°
Arg. of periapsis311.0381°
True anomaly48.82643°
Mean anomaly12.2567°
Eccentric anomaly26.91166°
Mean motion1.07262 °/min
BSTAR0.0089419
Orbital period335.63 mins
Loading maneuver chart data...
Loading historical data...
Loading historical data...
Loading historical data...
Loading historical data...
Loading historical data...
Loading historical data...
Loading historical data...

SL-12 DEB Visibility forecast

Observer location: undefined°, undefined

Span
Click to sort rows by Start time (UTC) header in descending order
Start Az.
Max El. time (UTC)
Max El. Az.
Max El.
End time (UTC)
End Az.
47 mins2024-12-05 04:50:20.413Z52.931° ENE2024-12-05 04:50:20.413Z52.931° ENE17.793°2024-12-05 05:37:20.413Z66.799° ENE
246 mins2024-12-05 08:37:20.413Z316.446° NNW2024-12-05 10:52:20.413Z246.102° WSW44.997°2024-12-05 12:43:20.413Z179.245° S
103 mins2024-12-05 14:59:20.413Z330.99° NNW2024-12-05 15:45:20.413Z313.873° NW16.22°2024-12-05 16:42:20.413Z295.978° NW
113 mins2024-12-06 00:55:20.413Z187.782° SSW2024-12-06 01:07:20.413Z106.232° ESE43.833°2024-12-06 02:48:20.413Z39.291° NE
|